Location: Landeleau
(48.2273°N, 3.7285°W)
Time: 13:49:17
(UTC+00:00)

Cosmos 1726 - Pass Details

Date: 30 March 2020
Orbit: 481 x 500 km, 82.5° (Epoch: 24 May)

Event Time Altitude Azimuth Distance (km) Brightness Sun altitude
Exits shadow 19:43:04 15° 97° (E) 1,422 3.8 -10.6°
Maximum altitude 19:43:40 16° 86° (E) 1,398 3.8 -10.7°
Drops below altitude 10° 19:45:57 10° 49° (NE) 1,717 4.6 -11.0°
Sets 19:48:44 0° 26° (NNE) 2,607 5.7 -11.5°
